Home   Weather   Lørenskog   Past weeks
Flag for Norway

Past Weather in Lørenskog, Norway — Yesterday and Last 2 Weeks

Now
53 °F

Scattered clouds.


Feels Like: 53 °F
Forecast: 69 / 42 °F
Wind: 1 mph from Southwest

Location: Oslo-Blindern

Current Time: Sep 20, 2019 at 12:14:34 pm

Latest Report: Sep 20, 2019 at 11:00 am


Visibility: 47 mi

Pressure: 30.09 "Hg

Humidity: 74%

Dew Point: 45 °F

Location of LørenskogLocation

Past Weather in Lørenskog — Graph

°F

Lørenskog Temperature Yesterday

Maximum temperature yesterday: 56 °F (at 3:00 pm)
Minimum temperature yesterday: 37 °F (at 7:00 am)
Average temperature yesterday: 46 °F

High & Low Weather Summary for the Past Weeks

 TemperatureHumidityPressure
High65 °F (Sep 15, 3:00 pm)99% (Sep 11, 10:00 pm)30.29 "Hg (Sep 11, 10:00 pm)
Low37 °F (Sep 19, 7:00 am)33% (Sep 16, 3:00 pm)29.35 "Hg (Sep 15, 4:00 pm)
Average53 °F71%29.88 "Hg
* Reported Sep 5 10:00 am — Sep 20 10:00 am, Lørenskog. Weather by CustomWeather, © 2019

Note: Actual official high and low records may vary slightly from our data, if they occured in-between our weather recording intervals... More about our weather records

Advertising

Lørenskog Weather History for the Previous 24 Hours

Scroll right to see more
 ConditionsComfort  
Time TempWeatherWind HumidityBarometerVisibility
10:00 am
Fri, Sep 20
50 °FCool.1 mph87%30.09 "Hg28 mi
9:00 am47 °FRain showers. Cloudy.No wind87%30.09 "Hg12 mi
8:00 am45 °FOvercast.1 mph87%30.10 "Hg43 mi
7:00 am44 °FQuite cool.1 mph90%30.10 "Hg31 mi
6:00 am45 °FQuite cool.1 mph89%30.12 "Hg31 mi
5:00 am45 °FQuite cool.1 mph87%30.14 "Hg31 mi
4:00 am46 °FCool.1 mph84%30.16 "Hg31 mi
3:00 am46 °FCool.1 mph82%30.17 "Hg31 mi
2:00 am46 °FCool.1 mph80%30.19 "Hg31 mi
1:00 am45 °FCool.1 mph77%30.20 "Hg31 mi
12:00 am45 °FCool.1 mph78%30.22 "Hg31 mi
11:00 pm
Thu, Sep 19
45 °FOvercast.1 mph75%30.22 "Hg43 mi
10:00 pm46 °FCool.1 mph72%30.23 "Hg19 mi
9:00 pm47 °FCool.2 mph62%30.24 "Hg31 mi
8:00 pm48 °FPassing clouds.1 mph60%30.24 "Hg43 mi
7:00 pm50 °FCool.2 mph54%30.24 "Hg31 mi
6:00 pm53 °FCool.2 mph48%30.25 "Hg31 mi
5:00 pm53 °FCool.2 mph46%30.25 "Hg31 mi
4:00 pm54 °FCool.3 mph42%30.26 "Hg28 mi
3:00 pm56 °FRefreshingly cool.3 mph43%30.27 "Hg25 mi
2:00 pm55 °FOvercast.1 mph39%30.28 "Hg43 mi
1:00 pm54 °FCool.2 mph40%30.28 "Hg25 mi
12:00 pm52 °FCool.1 mph54%30.29 "HgN/A
Weather by CustomWeather, © 2019

See weather overview